MIDORI II (ADEOS-II)

Last updated on Sun Jun 21 2026 00:02:15 GMT+0000 (Coordinated Universal Time)

1 27597U 02056A 26171.42813808 .00000187 00000+0 91270-4 0 9992 2 27597 98.7878 130.7155 0002170 72.4390 287.7029 14.29351082224970
UTC large
Height (km)
Speed (km/s)
/
Latitude / Longitude
Inclination (degrees)
Orbital Period (minutes)
Azimuth
Elevation
Range (km)
Doppler Factor

Next 0 passes for location: London (51.5072 / 0.1276)

No passes found over London.
MIDORI II (ADEOS-II)